Weather History for Dallas/Ft Worth, TX

Change the Weather History Date:

Tuesday, November 27, 2012

  Actual Average Record
Temperature  
Mean Temperature 46 °F 52 °F  
Max Temperature 54 °F 62 °F 82 °F (1905)
Min Temperature 38 °F 42 °F 21 °F (1938)
Degree Days  
Heating Degree Days 19 13  
Month to date heating degree days 164 239  
Since 1 July heating degree days 262 311  
Cooling Degree Days 0 0  
Month to date cooling degree days 39 27  
Year to date cooling degree days 3322 2750  
Moisture  
Dew Point 33 °F    
Average Humidity 63    
Maximum Humidity 76    
Minimum Humidity 49    
Precipitation  
Precipitation 0.00 in 0.07 in 0.76 in (1958)
Month to date precipitation 0.05 2.48  
Year to date precipitation 29.31 33.36  
Snow  
Snow 0.00 in 0.00 in T in (1918)
Month to date snowfall 0.0 0.0  
Since 1 July snowfall 0.0 0.0  
Since 1 September snowfall 0.0 0.0  
Snow Depth 0.00 in    
Sea Level Pressure  
Sea Level Pressure 30.34 in    
Wind  
Wind Speed 9 mph (NNW)    
Max Wind Speed 21 mph    
Max Gust Speed 25 mph    
Visibility 10 miles    
Events      
T = Trace of Precipitation, MM = Missing Value Source: NWS Daily Summary

Daily Weather History Graph

Daily Weather History Graph

Search for Another Location

Airport:

Trip Planner

Search our weather history database for the weather conditions in past years. The results will help you decide how hot, cold, wet, or windy it might be!

Date:

Astronomy

Nov. 27, 2012 Rise Set
Actual Time 7:09 AM CST 5:21 PM CST
Civil Twilight 6:42 AM CST 5:48 PM CST
Nautical Twilight 6:12 AM CST 6:19 PM CST
Astronomical Twilight 5:42 AM CST 6:48 PM CST
Moon 4:53 PM CST (11/27) 6:17 AM CST (11/27)
Length of Visible Light 11h 05m
Length of Day
10h 12m
Waxing Gibbous, 99% of the Moon is Illuminated
Nov 27
Waxing Gibbous
Nov 28
Full
Dec 6
Last Quarter
Dec 13
New
Dec 19
First Quarter

Hourly Weather History & Observations

Time (CST) Temp. Windchill Dew Point Humidity Pressure Visibility Wind Dir Wind Speed Gust Speed Precip Events Conditions
12:53 AM 46.9 °F - 32.0 °F 56% 30.25 in 10.0 mi North 17.3 mph - N/A   Mostly Cloudy
1:53 AM 46.0 °F 38.3 °F 28.9 °F 51% 30.27 in 10.0 mi North 20.7 mph - N/A   Mostly Cloudy
2:53 AM 44.1 °F 37.7 °F 27.0 °F 51% 30.28 in 10.0 mi North 12.7 mph - N/A   Mostly Cloudy
3:45 AM 44.6 °F 38.1 °F 26.6 °F 49% 30.30 in 10.0 mi North 13.8 mph - N/A   Mostly Cloudy
3:53 AM 44.1 °F 36.5 °F 27.0 °F 51% 30.30 in 10.0 mi North 17.3 mph - N/A   Mostly Cloudy
4:14 AM 42.8 °F 35.4 °F 26.6 °F 53% 30.31 in 10.0 mi North 15.0 mph - N/A   Mostly Cloudy
4:53 AM 44.1 °F 36.8 °F 28.0 °F 53% 30.32 in 10.0 mi North 16.1 mph 20.7 mph N/A   Mostly Cloudy
5:53 AM 43.0 °F 36.4 °F 30.0 °F 60% 30.32 in 10.0 mi North 12.7 mph - N/A   Mostly Cloudy
6:53 AM 43.0 °F 36.0 °F 30.0 °F 60% 30.34 in 10.0 mi North 13.8 mph - N/A   Overcast
7:53 AM 42.1 °F 35.7 °F 30.9 °F 65% 30.38 in 10.0 mi North 11.5 mph - N/A   Overcast
8:53 AM 43.0 °F 37.2 °F 33.1 °F 68% 30.41 in 10.0 mi North 10.4 mph - N/A   Overcast
9:53 AM 44.1 °F 37.7 °F 32.0 °F 63% 30.44 in 10.0 mi North 12.7 mph - N/A   Overcast
10:53 AM 45.0 °F 40.6 °F 32.0 °F 60% 30.43 in 10.0 mi North 8.1 mph - N/A   Overcast
11:53 AM 46.9 °F - 33.1 °F 59% 30.42 in 10.0 mi North 5.8 mph - N/A   Overcast
12:53 PM 48.0 °F - 33.1 °F 56% 30.39 in 10.0 mi NNW 8.1 mph - N/A   Overcast
1:53 PM 50.0 °F - 35.1 °F 57% 30.36 in 10.0 mi NNW 5.8 mph - N/A   Mostly Cloudy
2:17 PM 50.0 °F - 35.6 °F 58% 30.35 in 10.0 mi Calm Calm - N/A   Scattered Clouds
2:53 PM 53.1 °F - 35.1 °F 50% 30.34 in 10.0 mi Variable 4.6 mph - N/A   Partly Cloudy
3:53 PM 53.1 °F - 35.1 °F 50% 30.33 in 10.0 mi Variable 4.6 mph - N/A   Clear
4:53 PM 52.0 °F - 35.1 °F 53% 30.33 in 10.0 mi NNW 3.5 mph - N/A   Clear
5:53 PM 48.9 °F - 35.1 °F 59% 30.32 in 10.0 mi Calm Calm - N/A   Clear
6:53 PM 46.0 °F 43.9 °F 35.1 °F 66% 30.32 in 10.0 mi SSW 4.6 mph - N/A   Clear
7:53 PM 45.0 °F 41.2 °F 35.1 °F 68% 30.33 in 10.0 mi SW 6.9 mph - N/A   Clear
8:53 PM 44.1 °F 40.8 °F 35.1 °F 71% 30.34 in 10.0 mi SW 5.8 mph - N/A   Clear
9:53 PM 43.0 °F 39.5 °F 36.0 °F 76% 30.35 in 10.0 mi SW 5.8 mph - N/A   Clear
10:53 PM 42.1 °F 40.2 °F 35.1 °F 76% 30.35 in 10.0 mi SW 3.5 mph - N/A   Clear
11:53 PM 39.0 °F - 36.0 °F 89% 30.35 in 10.0 mi Calm Calm - N/A   Clear